START_TIME,STEP,MOV.,M6,t_acc.,M7,t_acc.,M19,t_acc.,H36,t_acc.
1979-03-09 06:00:25.160 ,5,1,1.,12.0,0.,12.0,0.,12.0,0.,12.0
1979-03-09 06:00:37.160 ,5,1,1.,12.0,0.,12.0,0.,12.0,0.,12.0
1979-03-09 06:00:49.160 ,4,1,0.,12.0,0.,12.0,0.,12.0,0.,12.0
1979-03-09 06:01:01.160 ,4,1,2.,12.0,0.,12.0,0.,12.0,0.,12.0
1979-03-09 06:01:13.160 ,3,1,3.,12.0,0.,12.0,0.,12.0,0.,12.0
1979-03-09 06:01:25.160 ,3,1,5.,12.0,0.,12.0,0.,12.0,0.,12.0
1979-03-09 06:01:37.160 ,2,1,2.,12.0,0.,12.0,0.,12.0,0.,12.0
1979-03-09 06:01:49.160 ,2,1,2.,12.0,0.,12.0,0.,12.0,0.,12.0
1979-03-09 06:02:01.160 ,1,1,2.,12.0,0.,12.0,0.,12.0,0.,12.0
1979-03-09 06:02:13.160 ,1,1,1.,12.0,0.,12.0,0.,12.0,0.,12.0
1979-03-09 06:02:25.160 ,0,1,3.,12.0,0.,12.0,0.,12.0,0.,12.0
1979-03-09 06:02:37.160 ,0,1,0.,12.0,0.,12.0,0.,12.0,0.,12.0
1979-03-09 06:02:49.160 ,0,1,0.,12.0,0.,12.0,0.,12.0,0.,12.0
1979-03-09 06:03:01.160 ,0,1,1.,12.0,0.,12.0,0.,12.0,0.,12.0
1979-03-09 06:03:13.160 ,1,1,0.,12.0,0.,12.0,0.,12.0,0.,12.0
1979-03-09 06:03:25.160 ,1,1,0.,12.0,0.,12.0,0.,12.0,0.,12.0
1979-03-09 06:03:37.160 ,2,1,0.,12.0,0.,12.0,0.,12.0,0.,12.0
1979-03-09 06:03:49.160 ,2,1,0.,12.0,0.,12.0,0.,12.0,0.,12.0
1979-03-09 06:04:01.160 ,3,1,2.,12.0,0.,12.0,0.,12.0,0.,12.0
1979-03-09 06:04:13.160 ,3,1,5.,12.0,0.,12.0,0.,12.0,0.,12.0
1979-03-09 06:04:25.160 ,4,1,1.,12.0,0.,12.0,0.,12.0,0.,12.0
1979-03-09 06:04:37.160 ,4,1,0.,12.0,0.,12.0,0.,12.0,0.,12.0
1979-03-09 06:04:49.160 ,5,1,1.,12.0,0.,12.0,0.,12.0,0.,12.0
1979-03-09 06:05:01.160 ,5,1,1.,12.0,0.,12.0,0.,12.0,0.,12.0
1979-03-09 06:05:13.160 ,6,1,1.,12.0,0.,12.0,0.,12.0,0.,12.0
1979-03-09 06:05:25.160 ,6,1,1.,12.0,0.,12.0,0.,12.0,0.,12.0
1979-03-09 06:05:37.160 ,7,1,0.,12.0,0.,12.0,0.,12.0,0.,12.0
1979-03-09 06:05:49.160 ,7,1,0.,12.0,0.,12.0,0.,12.0,0.,12.0
1979-03-09 06:06:01.160 ,7,1,0.,12.0,0.,12.0,0.,12.0,0.,12.0
1979-03-09 06:06:13.160 ,7,1,0.,12.0,0.,12.0,0.,12.0,0.,12.0
1979-03-09 06:06:25.160 ,6,1,0.,12.0,0.,12.0,0.,12.0,0.,12.0
1979-03-09 06:06:37.160 ,6,1,0.,12.0,0.,12.0,0.,12.0,0.,12.0
1979-03-09 06:06:49.160 ,5,1,0.,12.0,0.,12.0,0.,12.0,0.,12.0
1979-03-09 06:07:01.160 ,5,1,0.,12.0,0.,12.0,0.,12.0,0.,12.0
1979-03-09 06:07:13.160 ,4,1,0.,12.0,0.,12.0,0.,12.0,0.,12.0
1979-03-09 06:07:25.160 ,4,1,1.,12.0,0.,12.0,0.,12.0,0.,12.0
1979-03-09 06:07:37.160 ,3,1,4.,12.0,0.,12.0,0.,12.0,0.,12.0
1979-03-09 06:07:49.160 ,3,1,2.,12.0,0.,12.0,0.,12.0,0.,12.0
1979-03-09 06:08:01.160 ,2,1,1.,12.0,0.,12.0,0.,12.0,0.,12.0
1979-03-09 06:08:13.160 ,2,1,2.,12.0,0.,12.0,0.,12.0,0.,12.0
1979-03-09 06:08:25.160 ,1,1,2.,12.0,0.,12.0,0.,12.0,0.,12.0
1979-03-09 06:08:37.160 ,1,1,0.,12.0,0.,12.0,0.,12.0,0.,12.0
1979-03-09 06:08:49.160 ,0,1,0.,12.0,0.,12.0,0.,12.0,0.,12.0
1979-03-09 06:09:01.160 ,0,1,0.,12.0,0.,12.0,0.,12.0,0.,12.0
1979-03-09 06:09:13.160 ,0,1,0.,12.0,0.,12.0,0.,12.0,0.,12.0
1979-03-09 06:09:25.160 ,0,1,0.,12.0,0.,12.0,0.,12.0,0.,12.0
1979-03-09 06:09:37.160 ,1,1,0.,12.0,0.,12.0,0.,12.0,0.,12.0
1979-03-09 06:09:49.160 ,1,1,1.,12.0,0.,12.0,0.,12.0,0.,12.0
1979-03-09 06:10:01.160 ,2,1,0.,12.0,0.,12.0,0.,12.0,0.,12.0
1979-03-09 06:10:13.160 ,2,1,1.,12.0,0.,12.0,0.,12.0,0.,12.0
1979-03-09 06:10:25.160 ,3,1,1.,12.0,0.,12.0,0.,12.0,0.,12.0
1979-03-09 06:10:37.160 ,3,1,3.,12.0,0.,12.0,0.,12.0,0.,12.0
1979-03-09 06:10:49.160 ,4,1,1.,12.0,0.,12.0,0.,12.0,0.,12.0
1979-03-09 06:11:01.160 ,4,1,2.,12.0,0.,12.0,0.,12.0,0.,12.0
1979-03-09 06:11:13.160 ,5,1,1.,12.0,0.,12.0,0.,12.0,0.,12.0
1979-03-09 06:11:25.160 ,5,1,2.,12.0,0.,12.0,0.,12.0,0.,12.0
1979-03-09 06:11:37.160 ,6,1,2.,12.0,0.,12.0,0.,12.0,0.,12.0
1979-03-09 06:11:49.160 ,6,1,1.,12.0,0.,12.0,0.,12.0,0.,12.0
1979-03-09 06:12:01.160 ,7,1,0.,12.0,0.,12.0,0.,12.0,0.,12.0
1979-03-09 06:12:13.160 ,7,1,0.,12.0,0.,12.0,0.,12.0,0.,12.0
1979-03-09 06:12:25.160 ,7,1,0.,12.0,0.,12.0,0.,12.0,0.,12.0
1979-03-09 06:12:37.160 ,7,1,0.,12.0,0.,12.0,0.,12.0,0.,12.0
1979-03-09 06:12:49.160 ,6,1,0.,12.0,0.,12.0,0.,12.0,0.,12.0
1979-03-09 06:13:01.160 ,6,1,0.,12.0,0.,12.0,0.,12.0,0.,12.0
1979-03-09 06:13:13.160 ,5,1,0.,12.0,0.,12.0,0.,12.0,0.,12.0
1979-03-09 06:13:25.160 ,5,1,1.,12.0,0.,12.0,0.,12.0,0.,12.0
1979-03-09 06:13:37.160 ,4,1,1.,12.0,0.,12.0,0.,12.0,0.,12.0
1979-03-09 06:13:49.160 ,4,1,0.,12.0,0.,12.0,0.,12.0,0.,12.0
1979-03-09 06:14:01.160 ,3,1,2.,12.0,0.,12.0,0.,12.0,0.,12.0
1979-03-09 06:14:13.160 ,3,1,0.,12.0,0.,12.0,0.,12.0,0.,12.0
1979-03-09 06:14:25.160 ,2,1,0.,12.0,0.,12.0,0.,12.0,0.,12.0
1979-03-09 06:14:37.160 ,2,1,0.,12.0,0.,12.0,0.,12.0,0.,12.0
1979-03-09 06:14:49.160 ,1,1,0.,12.0,0.,12.0,0.,12.0,0.,12.0
1979-03-09 06:15:01.160 ,1,1,1.,12.0,0.,12.0,0.,12.0,0.,12.0
1979-03-09 06:15:13.160 ,0,1,0.,12.0,0.,12.0,0.,12.0,0.,12.0
1979-03-09 06:15:25.160 ,0,1,0.,12.0,0.,12.0,0.,12.0,0.,12.0
1979-03-09 06:15:37.160 ,0,1,0.,12.0,0.,12.0,0.,12.0,0.,12.0
1979-03-09 06:15:49.160 ,0,1,0.,12.0,0.,12.0,0.,12.0,0.,12.0
1979-03-09 06:16:01.160 ,1,1,0.,12.0,0.,12.0,0.,12.0,0.,12.0
1979-03-09 06:16:13.160 ,1,1,0.,12.0,0.,12.0,0.,12.0,0.,12.0
1979-03-09 06:16:25.160 ,2,1,0.,12.0,0.,12.0,0.,12.0,0.,12.0
1979-03-09 06:16:37.160 ,2,1,1.,12.0,0.,12.0,0.,12.0,0.,12.0
1979-03-09 06:16:49.160 ,3,1,0.,12.0,0.,12.0,0.,12.0,0.,12.0
1979-03-09 06:17:01.160 ,3,1,1.,12.0,0.,12.0,0.,12.0,0.,12.0
1979-03-09 06:17:13.160 ,4,1,2.,12.0,0.,12.0,0.,12.0,0.,12.0
1979-03-09 06:17:25.160 ,4,1,1.,12.0,0.,12.0,0.,12.0,0.,12.0
1979-03-09 06:17:37.160 ,5,1,0.,12.0,0.,12.0,0.,12.0,0.,12.0
1979-03-09 06:17:49.160 ,5,1,1.,12.0,0.,12.0,0.,12.0,0.,12.0
1979-03-09 06:18:01.160 ,6,1,0.,12.0,0.,12.0,0.,12.0,0.,12.0
1979-03-09 06:18:13.160 ,6,1,0.,12.0,0.,12.0,0.,12.0,0.,12.0
1979-03-09 06:18:25.160 ,7,1,0.,12.0,0.,12.0,0.,12.0,0.,12.0
1979-03-09 06:18:37.160 ,7,1,0.,12.0,0.,12.0,0.,12.0,0.,12.0
1979-03-09 06:18:49.160 ,7,1,0.,12.0,0.,12.0,0.,12.0,0.,12.0
1979-03-09 06:19:01.160 ,7,1,0.,12.0,0.,12.0,0.,12.0,0.,12.0
1979-03-09 06:19:13.160 ,6,1,0.,12.0,0.,12.0,0.,12.0,0.,12.0
1979-03-09 06:19:25.160 ,6,1,0.,12.0,0.,12.0,0.,12.0,0.,12.0
1979-03-09 06:19:37.160 ,5,1,0.,12.0,0.,12.0,0.,12.0,0.,12.0
1979-03-09 06:19:49.160 ,5,1,0.,12.0,0.,12.0,0.,12.0,0.,12.0
1979-03-09 06:20:01.160 ,4,1,0.,12.0,0.,12.0,0.,12.0,0.,12.0
1979-03-09 06:20:13.160 ,4,1,0.,12.0,0.,12.0,0.,12.0,0.,12.0
1979-03-09 06:20:25.160 ,3,1,0.,12.0,0.,12.0,0.,12.0,0.,12.0
1979-03-09 06:20:37.160 ,3,1,0.,12.0,0.,12.0,0.,12.0,0.,12.0
1979-03-09 06:20:49.160 ,2,1,2.,12.0,0.,12.0,0.,12.0,0.,12.0
1979-03-09 06:21:01.160 ,2,1,1.,12.0,0.,12.0,0.,12.0,0.,12.0
1979-03-09 06:21:13.160 ,1,1,1.,12.0,0.,12.0,0.,12.0,0.,12.0
1979-03-09 06:21:25.160 ,1,1,0.,12.0,0.,12.0,0.,12.0,0.,12.0
1979-03-09 06:21:37.160 ,0,1,0.,12.0,0.,12.0,0.,12.0,0.,12.0
1979-03-09 06:21:49.160 ,0,1,1.,12.0,0.,12.0,0.,12.0,0.,12.0
1979-03-09 06:22:01.160 ,0,1,0.,12.0,0.,12.0,0.,12.0,0.,12.0
1979-03-09 06:22:13.160 ,0,1,0.,12.0,0.,12.0,0.,12.0,0.,12.0
1979-03-09 06:22:25.160 ,1,1,0.,12.0,0.,12.0,0.,12.0,0.,12.0
1979-03-09 06:22:37.160 ,1,1,2.,12.0,0.,12.0,0.,12.0,0.,12.0
1979-03-09 06:22:49.160 ,2,1,0.,12.0,0.,12.0,0.,12.0,0.,12.0
1979-03-09 06:23:01.160 ,2,1,2.,12.0,0.,12.0,0.,12.0,0.,12.0
1979-03-09 06:23:13.160 ,3,1,0.,12.0,0.,12.0,0.,12.0,0.,12.0
1979-03-09 06:23:25.160 ,3,1,0.,12.0,0.,12.0,0.,12.0,0.,12.0
1979-03-09 06:23:37.160 ,4,1,0.,12.0,0.,12.0,0.,12.0,0.,12.0
1979-03-09 06:23:49.160 ,4,1,3.,12.0,0.,12.0,0.,12.0,0.,12.0
1979-03-09 06:24:01.160 ,5,1,0.,12.0,0.,12.0,0.,12.0,0.,12.0
1979-03-09 06:24:13.160 ,5,1,0.,12.0,0.,12.0,0.,12.0,0.,12.0
1979-03-09 06:24:25.160 ,6,1,0.,12.0,0.,12.0,0.,12.0,0.,12.0
1979-03-09 06:24:37.160 ,6,1,0.,12.0,0.,12.0,0.,12.0,0.,12.0
1979-03-09 06:24:49.160 ,7,1,0.,12.0,0.,12.0,0.,12.0,0.,12.0
1979-03-09 06:25:01.160 ,7,1,0.,12.0,0.,12.0,0.,12.0,0.,12.0
1979-03-09 06:25:13.160 ,7,1,0.,12.0,0.,12.0,0.,12.0,0.,12.0
1979-03-09 06:25:25.160 ,7,1,0.,12.0,0.,12.0,0.,12.0,0.,12.0
1979-03-09 06:25:37.160 ,6,1,0.,12.0,0.,12.0,0.,12.0,0.,12.0
1979-03-09 06:25:49.160 ,6,1,0.,12.0,0.,12.0,0.,12.0,0.,12.0
1979-03-09 06:26:01.160 ,5,1,0.,12.0,0.,12.0,0.,12.0,0.,12.0
1979-03-09 06:26:13.160 ,5,1,0.,12.0,0.,12.0,0.,12.0,0.,12.0
1979-03-09 06:26:25.160 ,4,1,1.,12.0,0.,12.0,0.,12.0,0.,12.0
1979-03-09 06:26:37.160 ,4,1,0.,12.0,0.,12.0,0.,12.0,0.,12.0
1979-03-09 06:26:49.160 ,3,1,0.,12.0,0.,12.0,0.,12.0,0.,12.0
1979-03-09 06:27:01.160 ,3,1,0.,12.0,0.,12.0,0.,12.0,0.,12.0
1979-03-09 06:27:13.160 ,2,1,0.,12.0,0.,12.0,0.,12.0,0.,12.0
1979-03-09 06:27:25.160 ,2,1,1.,12.0,0.,12.0,0.,12.0,0.,12.0
1979-03-09 06:27:37.160 ,1,1,0.,12.0,0.,12.0,0.,12.0,0.,12.0
1979-03-09 06:27:49.160 ,1,1,0.,12.0,0.,12.0,0.,12.0,0.,12.0
1979-03-09 06:28:01.160 ,0,1,0.,12.0,0.,12.0,0.,12.0,0.,12.0
1979-03-09 06:28:13.160 ,0,1,0.,12.0,0.,12.0,0.,12.0,0.,12.0
1979-03-09 06:28:25.160 ,0,1,0.,12.0,0.,12.0,0.,12.0,0.,12.0
1979-03-09 06:28:37.160 ,0,1,0.,12.0,0.,12.0,0.,12.0,0.,12.0
1979-03-09 06:28:49.160 ,1,1,0.,12.0,0.,12.0,0.,12.0,0.,12.0
1979-03-09 06:29:01.160 ,1,1,0.,12.0,0.,12.0,0.,12.0,0.,12.0
1979-03-09 06:29:13.160 ,2,1,0.,12.0,0.,12.0,0.,12.0,0.,12.0
1979-03-09 06:29:25.160 ,2,1,0.,12.0,0.,12.0,0.,12.0,0.,12.0
1979-03-09 06:29:37.160 ,3,1,0.,12.0,0.,12.0,0.,12.0,0.,12.0
1979-03-09 06:29:49.160 ,3,1,1.,12.0,0.,12.0,0.,12.0,0.,12.0
1979-03-09 06:30:01.160 ,4,1,0.,12.0,0.,12.0,0.,12.0,0.,12.0
1979-03-09 06:30:13.160 ,4,1,1.,12.0,0.,12.0,0.,12.0,0.,12.0
1979-03-09 06:30:25.160 ,5,1,0.,12.0,0.,12.0,0.,12.0,0.,12.0
1979-03-09 06:30:37.160 ,5,1,0.,12.0,0.,12.0,0.,12.0,0.,12.0
1979-03-09 06:30:49.160 ,6,1,1.,12.0,0.,12.0,0.,12.0,0.,12.0
1979-03-09 06:31:01.160 ,6,1,1.,12.0,0.,12.0,0.,12.0,0.,12.0
1979-03-09 06:31:13.160 ,7,1,0.,12.0,0.,12.0,0.,12.0,0.,12.0
1979-03-09 06:31:25.160 ,7,1,0.,12.0,0.,12.0,0.,12.0,0.,12.0
1979-03-09 06:31:37.160 ,7,1,0.,12.0,0.,12.0,0.,12.0,0.,12.0
1979-03-09 06:31:49.160 ,7,1,0.,12.0,0.,12.0,0.,12.0,0.,12.0
1979-03-09 06:32:01.160 ,6,1,0.,12.0,0.,12.0,0.,12.0,0.,12.0
1979-03-09 06:32:13.160 ,6,1,0.,12.0,0.,12.0,0.,12.0,0.,12.0
1979-03-09 06:32:25.160 ,5,1,0.,12.0,0.,12.0,0.,12.0,0.,12.0
1979-03-09 06:32:37.160 ,5,1,0.,12.0,0.,12.0,0.,12.0,0.,12.0
1979-03-09 06:32:49.160 ,4,1,0.,12.0,0.,12.0,0.,12.0,0.,12.0
1979-03-09 06:33:01.160 ,4,1,1.,12.0,0.,12.0,0.,12.0,0.,12.0
1979-03-09 06:33:13.160 ,3,1,1.,12.0,0.,12.0,0.,12.0,0.,12.0
1979-03-09 06:33:25.160 ,3,1,0.,12.0,0.,12.0,0.,12.0,0.,12.0
1979-03-09 06:33:37.160 ,2,1,1.,12.0,0.,12.0,0.,12.0,0.,12.0
1979-03-09 06:33:49.160 ,2,1,1.,12.0,0.,12.0,0.,12.0,0.,12.0
1979-03-09 06:34:01.160 ,1,1,0.,12.0,0.,12.0,0.,12.0,0.,12.0
1979-03-09 06:34:13.170 ,1,1,0.,12.0,0.,12.0,0.,12.0,0.,12.0
1979-03-09 06:34:25.170 ,0,1,0.,12.0,0.,12.0,0.,12.0,0.,12.0
1979-03-09 06:34:37.170 ,0,1,0.,12.0,0.,12.0,0.,12.0,0.,12.0
1979-03-09 06:34:49.170 ,0,1,0.,12.0,0.,12.0,0.,12.0,0.,12.0
1979-03-09 06:35:01.170 ,0,1,0.,12.0,0.,12.0,0.,12.0,0.,12.0
1979-03-09 06:35:13.170 ,1,1,0.,12.0,0.,12.0,0.,12.0,0.,12.0
1979-03-09 06:35:25.170 ,1,1,0.,12.0,0.,12.0,0.,12.0,0.,12.0
1979-03-09 06:35:37.170 ,2,1,0.,12.0,0.,12.0,0.,12.0,0.,12.0
1979-03-09 06:35:49.170 ,2,1,0.,12.0,0.,12.0,0.,12.0,0.,12.0
1979-03-09 06:36:01.170 ,3,1,0.,12.0,0.,12.0,0.,12.0,0.,12.0
1979-03-09 06:36:13.170 ,3,1,0.,12.0,0.,12.0,0.,12.0,0.,12.0
1979-03-09 06:36:25.170 ,4,1,0.,12.0,0.,12.0,0.,12.0,0.,12.0
1979-03-09 06:36:37.170 ,4,1,0.,12.0,0.,12.0,0.,12.0,0.,12.0
1979-03-09 06:36:49.170 ,5,1,0.,12.0,0.,12.0,0.,12.0,0.,12.0
1979-03-09 06:37:01.170 ,5,1,1.,12.0,0.,12.0,0.,12.0,0.,12.0
1979-03-09 06:37:13.170 ,6,1,0.,12.0,0.,12.0,0.,12.0,0.,12.0
1979-03-09 06:37:25.170 ,6,1,0.,12.0,0.,12.0,0.,12.0,0.,12.0
1979-03-09 06:37:37.170 ,7,1,0.,12.0,0.,12.0,0.,12.0,0.,12.0
1979-03-09 06:37:49.170 ,7,1,0.,12.0,0.,12.0,0.,12.0,0.,12.0
1979-03-09 06:38:01.170 ,7,1,0.,12.0,0.,12.0,0.,12.0,0.,12.0
1979-03-09 06:38:13.170 ,7,1,0.,12.0,0.,12.0,0.,12.0,0.,12.0
1979-03-09 06:38:25.170 ,6,1,0.,12.0,0.,12.0,0.,12.0,0.,12.0
1979-03-09 06:38:37.170 ,6,1,0.,12.0,0.,12.0,0.,12.0,0.,12.0
1979-03-09 06:38:49.170 ,5,1,0.,12.0,0.,12.0,0.,12.0,0.,12.0
1979-03-09 06:39:01.170 ,5,1,0.,12.0,0.,12.0,0.,12.0,0.,12.0
1979-03-09 06:39:13.170 ,2,1,1.,12.0,0.,12.0,0.,12.0,0.,12.0
1979-03-09 06:39:25.170 ,2,1,0.,12.0,0.,12.0,0.,12.0,0.,12.0
1979-03-09 06:39:37.170 ,1,1,1.,12.0,0.,12.0,0.,12.0,0.,12.0
1979-03-09 06:39:49.170 ,1,1,0.,12.0,0.,12.0,0.,12.0,0.,12.0
1979-03-09 06:40:01.170 ,5,1,0.,12.0,0.,12.0,0.,12.0,0.,12.0
1979-03-09 06:40:13.170 ,5,1,1.,12.0,0.,12.0,0.,12.0,0.,12.0
1979-03-09 06:40:25.170 ,6,1,0.,12.0,0.,12.0,0.,12.0,0.,12.0
1979-03-09 06:40:37.170 ,6,1,0.,12.0,0.,12.0,0.,12.0,0.,12.0
1979-03-09 06:40:49.170 ,2,1,0.,12.0,0.,12.0,0.,12.0,0.,12.0
1979-03-09 06:41:01.170 ,2,1,0.,12.0,0.,12.0,0.,12.0,0.,12.0
1979-03-09 06:41:13.170 ,1,1,0.,12.0,0.,12.0,0.,12.0,0.,12.0
1979-03-09 06:41:25.170 ,1,1,0.,12.0,0.,12.0,0.,12.0,0.,12.0
1979-03-09 06:41:37.170 ,5,1,1.,12.0,0.,12.0,0.,12.0,0.,12.0
1979-03-09 06:41:49.170 ,5,1,0.,12.0,0.,12.0,0.,12.0,0.,12.0
1979-03-09 06:42:01.170 ,6,1,1.,12.0,0.,12.0,0.,12.0,0.,12.0
1979-03-09 06:42:13.170 ,6,1,0.,12.0,0.,12.0,0.,12.0,0.,12.0
1979-03-09 06:42:25.170 ,2,1,0.,12.0,0.,12.0,0.,12.0,0.,12.0
1979-03-09 06:42:37.170 ,2,1,0.,12.0,0.,12.0,0.,12.0,0.,12.0
1979-03-09 06:42:49.170 ,1,1,0.,12.0,0.,12.0,0.,12.0,0.,12.0
1979-03-09 06:43:01.170 ,1,1,0.,12.0,0.,12.0,0.,12.0,0.,12.0
1979-03-09 06:43:13.170 ,5,1,1.,12.0,0.,12.0,0.,12.0,0.,12.0
1979-03-09 06:43:25.170 ,5,1,0.,12.0,0.,12.0,0.,12.0,0.,12.0
1979-03-09 06:43:37.170 ,6,1,0.,12.0,0.,12.0,0.,12.0,0.,12.0
1979-03-09 06:43:49.170 ,6,1,0.,12.0,0.,12.0,0.,12.0,0.,12.0
1979-03-09 06:44:01.170 ,2,1,0.,12.0,0.,12.0,0.,12.0,0.,12.0
1979-03-09 06:44:13.170 ,2,1,1.,12.0,0.,12.0,0.,12.0,0.,12.0
1979-03-09 06:44:25.170 ,1,1,0.,12.0,0.,12.0,0.,12.0,0.,12.0
1979-03-09 06:44:37.170 ,1,1,0.,12.0,0.,12.0,0.,12.0,0.,12.0
1979-03-09 06:44:49.170 ,5,1,0.,12.0,0.,12.0,0.,12.0,0.,12.0
1979-03-09 06:45:01.170 ,5,1,0.,12.0,0.,12.0,0.,12.0,0.,12.0
1979-03-09 06:45:13.170 ,6,1,0.,12.0,0.,12.0,0.,12.0,0.,12.0
1979-03-09 06:45:25.170 ,6,1,0.,12.0,0.,12.0,0.,12.0,0.,12.0
1979-03-09 06:45:37.170 ,2,1,0.,12.0,0.,12.0,0.,12.0,0.,12.0
1979-03-09 06:45:49.170 ,2,1,0.,12.0,0.,12.0,0.,12.0,0.,12.0
1979-03-09 06:46:01.170 ,1,1,0.,12.0,0.,12.0,0.,12.0,0.,12.0
1979-03-09 06:46:13.170 ,1,1,0.,12.0,0.,12.0,0.,12.0,0.,12.0
1979-03-09 06:46:25.170 ,5,1,0.,12.0,0.,12.0,0.,12.0,0.,12.0
1979-03-09 06:46:37.170 ,5,1,0.,12.0,0.,12.0,0.,12.0,0.,12.0
1979-03-09 06:46:49.170 ,6,1,0.,12.0,0.,12.0,0.,12.0,0.,12.0
1979-03-09 06:47:01.170 ,6,1,0.,12.0,0.,12.0,0.,12.0,0.,12.0
1979-03-09 06:47:13.170 ,2,1,1.,12.0,0.,12.0,0.,12.0,0.,12.0
1979-03-09 06:47:25.170 ,2,1,0.,12.0,0.,12.0,0.,12.0,0.,12.0
1979-03-09 06:47:37.170 ,1,1,1.,12.0,0.,12.0,0.,12.0,0.,12.0
1979-03-09 06:47:49.170 ,1,1,0.,12.0,0.,12.0,0.,12.0,0.,12.0
1979-03-09 06:48:01.170 ,5,1,0.,12.0,0.,12.0,0.,12.0,0.,12.0
1979-03-09 06:48:13.170 ,5,1,0.,12.0,0.,12.0,0.,12.0,0.,12.0
1979-03-09 06:48:25.170 ,6,1,0.,12.0,0.,12.0,0.,12.0,0.,12.0
1979-03-09 06:48:37.170 ,6,1,0.,12.0,0.,12.0,0.,12.0,0.,12.0
1979-03-09 06:48:49.170 ,2,1,0.,12.0,0.,12.0,0.,12.0,0.,12.0
1979-03-09 06:49:01.170 ,2,1,0.,12.0,0.,12.0,0.,12.0,0.,12.0
1979-03-09 06:49:13.170 ,1,1,0.,12.0,0.,12.0,0.,12.0,0.,12.0
1979-03-09 06:49:25.170 ,1,1,0.,12.0,0.,12.0,0.,12.0,0.,12.0
1979-03-09 06:49:37.170 ,5,1,0.,12.0,0.,12.0,0.,12.0,0.,12.0
1979-03-09 06:49:49.170 ,5,1,0.,12.0,0.,12.0,0.,12.0,0.,12.0
1979-03-09 06:50:01.170 ,6,1,0.,12.0,0.,12.0,0.,12.0,0.,12.0
1979-03-09 06:50:13.170 ,6,1,0.,12.0,0.,12.0,0.,12.0,0.,12.0
1979-03-09 06:50:25.170 ,2,1,1.,12.0,0.,12.0,0.,12.0,0.,12.0
1979-03-09 06:50:37.170 ,2,1,0.,12.0,0.,12.0,0.,12.0,0.,12.0
1979-03-09 06:50:49.170 ,1,1,0.,12.0,0.,12.0,0.,12.0,0.,12.0
1979-03-09 06:51:01.170 ,1,1,0.,12.0,0.,12.0,0.,12.0,0.,12.0
1979-03-09 06:51:13.170 ,5,1,0.,12.0,0.,12.0,0.,12.0,0.,12.0
1979-03-09 06:51:25.170 ,5,1,0.,12.0,0.,12.0,0.,12.0,0.,12.0
1979-03-09 06:51:37.170 ,6,1,0.,12.0,0.,12.0,0.,12.0,0.,12.0
1979-03-09 06:51:49.170 ,6,1,1.,12.0,0.,12.0,0.,12.0,0.,12.0
1979-03-09 06:52:01.170 ,2,1,0.,12.0,0.,12.0,0.,12.0,0.,12.0
1979-03-09 06:52:13.170 ,2,1,1.,12.0,0.,12.0,0.,12.0,0.,12.0
1979-03-09 06:52:25.170 ,1,1,0.,12.0,0.,12.0,0.,12.0,0.,12.0
1979-03-09 06:52:37.170 ,1,1,0.,12.0,0.,12.0,0.,12.0,0.,12.0
1979-03-09 06:52:49.170 ,5,1,0.,12.0,0.,12.0,0.,12.0,0.,12.0
1979-03-09 06:53:01.170 ,5,1,0.,12.0,0.,12.0,0.,12.0,0.,12.0
1979-03-09 06:53:13.170 ,6,1,0.,12.0,0.,12.0,0.,12.0,0.,12.0
1979-03-09 06:53:25.170 ,6,1,0.,12.0,0.,12.0,0.,12.0,0.,12.0
1979-03-09 06:53:37.170 ,2,1,0.,12.0,0.,12.0,0.,12.0,0.,12.0
1979-03-09 06:53:49.170 ,2,1,1.,12.0,0.,12.0,0.,12.0,0.,12.0
1979-03-09 06:54:01.170 ,1,1,0.,12.0,0.,12.0,0.,12.0,0.,12.0
1979-03-09 06:54:13.170 ,1,1,0.,12.0,0.,12.0,0.,12.0,0.,12.0
1979-03-09 06:54:25.170 ,5,1,0.,12.0,0.,12.0,0.,12.0,0.,12.0
1979-03-09 06:54:37.170 ,5,1,0.,12.0,0.,12.0,0.,12.0,0.,12.0
1979-03-09 06:54:49.170 ,6,1,1.,12.0,0.,12.0,0.,12.0,0.,12.0
1979-03-09 06:55:01.170 ,6,1,0.,12.0,0.,12.0,0.,12.0,0.,12.0
1979-03-09 06:55:13.170 ,2,1,0.,12.0,0.,12.0,0.,12.0,0.,12.0
1979-03-09 06:55:25.170 ,2,1,0.,12.0,0.,12.0,0.,12.0,0.,12.0
1979-03-09 06:55:37.170 ,1,1,0.,12.0,0.,12.0,0.,12.0,0.,12.0
1979-03-09 06:55:49.170 ,1,1,0.,12.0,0.,12.0,0.,12.0,0.,12.0
1979-03-09 06:56:01.170 ,5,1,0.,12.0,0.,12.0,0.,12.0,0.,12.0
1979-03-09 06:56:13.170 ,5,1,0.,12.0,0.,12.0,0.,12.0,0.,12.0
1979-03-09 06:56:25.170 ,6,1,0.,12.0,0.,12.0,0.,12.0,0.,12.0
1979-03-09 06:56:37.170 ,6,1,0.,12.0,0.,12.0,0.,12.0,0.,12.0
1979-03-09 06:56:49.170 ,2,1,1.,12.0,0.,12.0,0.,12.0,0.,12.0
1979-03-09 06:57:01.170 ,2,1,0.,12.0,0.,12.0,0.,12.0,0.,12.0
1979-03-09 06:57:13.170 ,1,1,0.,12.0,0.,12.0,0.,12.0,0.,12.0
1979-03-09 06:57:25.170 ,1,1,0.,12.0,0.,12.0,0.,12.0,0.,12.0
1979-03-09 06:57:37.170 ,5,1,0.,12.0,0.,12.0,0.,12.0,0.,12.0
1979-03-09 06:57:49.170 ,5,1,2.,12.0,0.,12.0,0.,12.0,0.,12.0
1979-03-09 06:58:01.170 ,6,1,0.,12.0,0.,12.0,0.,12.0,0.,12.0
1979-03-09 06:58:13.170 ,6,1,0.,12.0,0.,12.0,0.,12.0,0.,12.0
1979-03-09 06:58:25.170 ,2,1,0.,12.0,0.,12.0,0.,12.0,0.,12.0
1979-03-09 06:58:37.170 ,2,1,0.,12.0,0.,12.0,0.,12.0,0.,12.0
1979-03-09 06:58:49.170 ,1,1,0.,12.0,0.,12.0,0.,12.0,0.,12.0
1979-03-09 06:59:01.170 ,1,1,0.,12.0,0.,12.0,0.,12.0,0.,12.0
1979-03-09 06:59:13.170 ,5,1,0.,12.0,0.,12.0,0.,12.0,0.,12.0
1979-03-09 06:59:25.170 ,5,1,0.,12.0,0.,12.0,0.,12.0,0.,12.0
1979-03-09 06:59:37.170 ,6,1,0.,12.0,0.,12.0,0.,12.0,0.,12.0
1979-03-09 06:59:49.170 ,6,1,0.,12.0,0.,12.0,0.,12.0,0.,12.0
1979-03-09 07:00:01.170 ,2,1,0.,12.0,0.,12.0,0.,12.0,0.,12.0
1979-03-09 07:00:13.170 ,2,1,0.,12.0,0.,12.0,0.,12.0,0.,12.0
1979-03-09 07:00:25.170 ,1,1,0.,12.0,0.,12.0,0.,12.0,0.,12.0
1979-03-09 07:00:37.170 ,1,1,0.,12.0,0.,12.0,0.,12.0,0.,12.0
1979-03-09 07:00:49.170 ,5,1,0.,12.0,0.,12.0,0.,12.0,0.,12.0
1979-03-09 07:01:01.170 ,5,1,0.,12.0,0.,12.0,0.,12.0,0.,12.0
1979-03-09 07:01:13.170 ,6,1,0.,12.0,0.,12.0,0.,12.0,0.,12.0
1979-03-09 07:01:25.170 ,6,1,0.,12.0,0.,12.0,0.,12.0,0.,12.0
1979-03-09 07:01:37.170 ,2,1,0.,12.0,0.,12.0,0.,12.0,0.,12.0
1979-03-09 07:01:49.170 ,2,1,1.,12.0,0.,12.0,0.,12.0,0.,12.0
1979-03-09 07:02:01.170 ,1,1,0.,12.0,0.,12.0,0.,12.0,0.,12.0
1979-03-09 07:02:13.170 ,1,1,0.,12.0,0.,12.0,0.,12.0,0.,12.0
1979-03-09 07:02:25.170 ,5,1,0.,12.0,0.,12.0,0.,12.0,0.,12.0
1979-03-09 07:02:37.170 ,5,1,0.,12.0,0.,12.0,0.,12.0,0.,12.0
1979-03-09 07:02:49.170 ,6,1,0.,12.0,0.,12.0,0.,12.0,0.,12.0
1979-03-09 07:03:01.170 ,6,1,0.,12.0,0.,12.0,0.,12.0,0.,12.0
1979-03-09 07:03:13.170 ,2,1,0.,12.0,0.,12.0,0.,12.0,0.,12.0
1979-03-09 07:03:25.170 ,2,1,0.,12.0,0.,12.0,0.,12.0,0.,12.0
1979-03-09 07:03:37.170 ,1,1,0.,12.0,0.,12.0,0.,12.0,0.,12.0
1979-03-09 07:03:49.170 ,1,1,0.,12.0,0.,12.0,0.,12.0,0.,12.0
1979-03-09 07:04:01.170 ,5,1,0.,12.0,0.,12.0,0.,12.0,0.,12.0
1979-03-09 07:04:13.170 ,5,1,0.,12.0,0.,12.0,0.,12.0,0.,12.0
1979-03-09 07:04:25.170 ,6,1,0.,12.0,0.,12.0,0.,12.0,0.,12.0
1979-03-09 07:04:37.170 ,6,1,0.,12.0,0.,12.0,0.,12.0,0.,12.0
1979-03-09 07:04:49.170 ,2,1,0.,12.0,0.,12.0,0.,12.0,0.,12.0
1979-03-09 07:05:01.170 ,2,1,0.,12.0,0.,12.0,0.,12.0,0.,12.0
1979-03-09 07:05:13.170 ,1,1,0.,12.0,0.,12.0,0.,12.0,0.,12.0
1979-03-09 07:05:25.170 ,1,1,0.,12.0,0.,12.0,0.,12.0,0.,12.0
1979-03-09 07:05:37.170 ,5,1,0.,12.0,0.,12.0,0.,12.0,0.,12.0
1979-03-09 07:05:49.170 ,5,1,0.,12.0,0.,12.0,0.,12.0,0.,12.0
1979-03-09 07:06:01.170 ,6,1,0.,12.0,0.,12.0,0.,12.0,0.,12.0
1979-03-09 07:06:13.170 ,6,1,0.,12.0,0.,12.0,0.,12.0,0.,12.0
1979-03-09 07:06:25.170 ,2,1,0.,12.0,0.,12.0,0.,12.0,0.,12.0
1979-03-09 07:06:37.170 ,2,1,0.,12.0,0.,12.0,0.,12.0,0.,12.0
1979-03-09 07:06:49.170 ,1,1,0.,12.0,0.,12.0,0.,12.0,0.,12.0
1979-03-09 07:07:01.170 ,1,1,0.,12.0,0.,12.0,0.,12.0,0.,12.0
1979-03-09 07:07:13.170 ,5,1,0.,12.0,0.,12.0,0.,12.0,0.,12.0
1979-03-09 07:07:25.170 ,5,1,0.,12.0,0.,12.0,0.,12.0,0.,12.0
1979-03-09 07:07:37.170 ,6,1,0.,12.0,0.,12.0,0.,12.0,0.,12.0
1979-03-09 07:07:49.170 ,6,1,0.,12.0,0.,12.0,0.,12.0,0.,12.0
1979-03-09 07:08:01.170 ,2,1,0.,12.0,0.,12.0,0.,12.0,0.,12.0
1979-03-09 07:08:13.170 ,2,1,0.,12.0,0.,12.0,0.,12.0,0.,12.0
1979-03-09 07:08:25.170 ,1,1,0.,12.0,0.,12.0,0.,12.0,0.,12.0
1979-03-09 07:08:37.170 ,1,1,0.,12.0,0.,12.0,0.,12.0,0.,12.0
1979-03-09 07:08:49.170 ,5,1,0.,12.0,0.,12.0,0.,12.0,0.,12.0
1979-03-09 07:09:01.170 ,5,1,1.,12.0,0.,12.0,0.,12.0,0.,12.0
1979-03-09 07:09:13.170 ,6,1,0.,12.0,0.,12.0,0.,12.0,0.,12.0
1979-03-09 07:09:25.170 ,6,1,0.,12.0,0.,12.0,0.,12.0,0.,12.0
1979-03-09 07:09:37.170 ,2,1,0.,12.0,0.,12.0,0.,12.0,0.,12.0
1979-03-09 07:09:49.170 ,2,1,0.,12.0,0.,12.0,0.,12.0,0.,12.0
1979-03-09 07:10:01.170 ,1,1,0.,12.0,0.,12.0,0.,12.0,0.,12.0
1979-03-09 07:10:13.170 ,1,1,0.,12.0,0.,12.0,0.,12.0,0.,12.0
1979-03-09 07:10:25.170 ,5,1,0.,12.0,0.,12.0,0.,12.0,0.,12.0
1979-03-09 07:10:37.170 ,5,1,0.,12.0,0.,12.0,0.,12.0,0.,12.0
1979-03-09 07:10:49.170 ,6,1,0.,12.0,0.,12.0,0.,12.0,0.,12.0
1979-03-09 07:11:01.170 ,6,1,0.,12.0,0.,12.0,0.,12.0,0.,12.0
1979-03-09 07:11:13.170 ,2,1,0.,12.0,0.,12.0,0.,12.0,0.,12.0
1979-03-09 07:11:25.170 ,2,1,0.,12.0,0.,12.0,0.,12.0,0.,12.0
1979-03-09 07:11:37.170 ,1,1,0.,12.0,0.,12.0,0.,12.0,0.,12.0
1979-03-09 07:11:49.170 ,1,1,0.,12.0,0.,12.0,0.,12.0,0.,12.0
1979-03-09 07:12:01.170 ,5,1,0.,12.0,0.,12.0,0.,12.0,0.,12.0
1979-03-09 07:12:13.170 ,5,1,0.,12.0,0.,12.0,0.,12.0,0.,12.0
1979-03-09 07:12:25.170 ,6,1,0.,12.0,0.,12.0,0.,12.0,0.,12.0
1979-03-09 07:12:37.170 ,6,1,0.,12.0,0.,12.0,0.,12.0,0.,12.0
1979-03-09 07:12:49.170 ,2,1,0.,12.0,0.,12.0,0.,12.0,0.,12.0
1979-03-09 07:13:01.170 ,2,1,0.,12.0,0.,12.0,0.,12.0,0.,12.0
1979-03-09 07:13:13.170 ,1,1,0.,12.0,0.,12.0,0.,12.0,0.,12.0
1979-03-09 07:13:25.170 ,1,1,0.,12.0,0.,12.0,0.,12.0,0.,12.0
1979-03-09 07:13:37.170 ,5,1,0.,12.0,0.,12.0,0.,12.0,0.,12.0
1979-03-09 07:13:49.170 ,5,1,0.,12.0,0.,12.0,0.,12.0,0.,12.0
1979-03-09 07:14:01.170 ,6,1,1.,12.0,0.,12.0,0.,12.0,0.,12.0
1979-03-09 07:14:13.170 ,6,1,0.,12.0,0.,12.0,0.,12.0,0.,12.0
1979-03-09 07:14:25.170 ,2,1,0.,12.0,0.,12.0,0.,12.0,0.,12.0
1979-03-09 07:14:37.170 ,2,1,0.,12.0,0.,12.0,0.,12.0,0.,12.0
1979-03-09 07:14:49.170 ,1,1,0.,12.0,0.,12.0,0.,12.0,0.,12.0
1979-03-09 07:15:01.170 ,1,1,0.,12.0,0.,12.0,0.,12.0,0.,12.0
1979-03-09 07:15:13.170 ,5,1,0.,12.0,0.,12.0,0.,12.0,0.,12.0
1979-03-09 07:15:25.170 ,5,1,0.,12.0,0.,12.0,0.,12.0,0.,12.0
1979-03-09 07:15:37.170 ,6,1,0.,12.0,0.,12.0,0.,12.0,0.,12.0
1979-03-09 07:15:49.170 ,6,1,0.,12.0,0.,12.0,0.,12.0,0.,12.0
1979-03-09 07:16:01.170 ,2,1,1.,12.0,0.,12.0,0.,12.0,0.,12.0
1979-03-09 07:16:13.170 ,2,1,0.,12.0,0.,12.0,0.,12.0,0.,12.0
1979-03-09 07:16:25.170 ,1,1,0.,12.0,0.,12.0,0.,12.0,0.,12.0
1979-03-09 07:16:37.170 ,1,1,0.,12.0,0.,12.0,0.,12.0,0.,12.0
1979-03-09 07:16:49.170 ,5,1,0.,12.0,0.,12.0,0.,12.0,0.,12.0
1979-03-09 07:17:01.170 ,5,1,0.,12.0,0.,12.0,0.,12.0,0.,12.0
1979-03-09 07:17:13.170 ,6,1,0.,12.0,0.,12.0,0.,12.0,0.,12.0
1979-03-09 07:17:25.170 ,6,1,0.,12.0,0.,12.0,0.,12.0,0.,12.0